{"data":{"norad_id":56071,"epoch":"2026-09-19T22:42:52.037568Z","epoch_age_seconds":65958,"freshness":"FRESH","line1":"1 56071U 23043AB  26262.94643562  .00000047  00000+0  91633-4 0  9994","line2":"2 56071  87.8983 240.3261 0001941  76.0082 284.1264 13.15547193168898","mean_motion":13.15547193,"eccentricity":0.0001941,"inclination_deg":87.8983,"raan_deg":240.3261,"arg_perigee_deg":76.0082,"mean_anomaly_deg":284.1264,"bstar":9.1633e-5,"rev_number":16889,"period_min":109.4601552618,"perigee_km":1200.3047188513,"apogee_km":1203.2472410702,"semimajor_km":7579.9129799607,"source":"CELESTRAK","updated_at":"2026-09-20T09:00:44.791799Z"}}